User: anonymous   Login
Location: D�derode
(51.8092°N, 10.1065°E)
Time: 11:02:48
(UTC+00:00)
Language:

Landsat 5 - Orbit

View from above orbital plane
View from above orbital plane
View from above satellite
View from above satellite

Ground track
Ground track

The orbit data is extracted from the following two-line orbital elements,

1 14780U 84021A   21063.48972609  .00000420  00000-0  44376-4 0  9996
2 14780  98.1957 236.6613 0090399  31.1402 329.5128 14.92225588502552
Epoch (UTC): 04 March 2021 11:45:12
Eccentricity: 0.0090399
inclination: 98.1957°
perigee height: 528 km
apogee height: 654 km
right ascension of ascending node: 236.6613°
argument of perigee: 31.1402°
revolutions per day: 14.92225588
mean anomaly at epoch: 329.5128°
orbit number at epoch: 50255

The dashed part of the orbit path shows where the satellite is in the earth's shadow,  

DLR